Temp
-15 -15 -15 -14 -14 -13 -13 -13 -13 -12 -12 -12 -12 -12 -13 -13 -13 -12 -12 -13 -13 -13 -13 -13 -13 -13 -13
-15 -15 -15 -15 -14 -14 -13 -13 -13 -12 -12 -12 -13 -13 -13 -13 -12 -12 -13 -14 -14 -14 -14 -13 -13 -13 -13
-16 -16 -15 -15 -14 -14 -14 -14 -13 -13 -13 -13 -13 -13 -13 -12 -13 -13 -14 -14 -15 -14 -14 -14 -13 -13 -13
-16 -16 -15 -15 -15 -15 -14 -14 -14 -14 -13 -14 -13 -13 -13 -13 -13 -13 -13 -13 -13 -14 -14 -14 -13 -13 -13
-15 -15 -15 -15 -14 -15 -15 -15 -14 -14 -14 -14 -14 -13 -13 -13 -13 -13 -13 -13 -13 -13 -13 -13 -13 -13 -13
-15 -15 -15 -14 -14 -14 -15 -15 -15 -14 -14 -14 -14 -13 -14 -14 -14 -13 -13 -13 -13 -13 -13 -13 -13 -13 -13
-15 -15 -15 -15 -14 -14 -15 -15 -15 -14 -14 -14 -14 -14 -14 -14 -14 -13 -13 -13 -13 -13 -13 -13 -13 -13 -13
-15 -16 -15 -15 -15 -14 -15 -15 -15 -15 -14 -14 -14 -14 -14 -14 -14 -13 -13 -13 -13 -13 -13 -13 -13 -14 -14
-16 -16 -16 -15 -15 -15 -15 -15 -15 -15 -14 -14 -14 -14 -14 -14 -14 -14 -13 -13 -13 -13 -14 -14 -14 -14 -15
-16 -15 -15 -16 -16 -15 -15 -15 -14 -15 -15 -14 -14 -14 -14 -14 -14 -14 -14 -14 -14 -14 -14 -14 -14 -15 -15
-16 -16 -15 -15 -15 -15 -15 -15 -15 -15 -15 -15 -14 -14 -14 -14 -14 -14 -14 -14 -14 -14 -14 -14 -15 -15 -15
-16 -16 -15 -15 -15 -15 -15 -15 -15 -15 -15 -15 -15 -15 -14 -14 -14 -14 -14 -14 -14 -14 -14 -14 -15 -15 -15
-18 -17 -16 -16 -15 -15 -15 -15 -15 -15 -15 -15 -15 -15 -15 -15 -14 -14 -14 -14 -14 -14 -14 -14 -14 -15 -15
-19 -18 -17 -17 -16 -16 -15 -15 -15 -15 -15 -15 -16 -16 -15 -15 -15 -15 -15 -14 -15 -15 -14 -14 -15 -15 -16
-19 -19 -19 -18 -18 -17 -17 -16 -16 -16 -16 -16 -16 -16 -16 -15 -15 -15 -15 -15 -15 -15 -15 -15 -15 -15 -16
-20 -20 -19 -19 -19 -19 -18 -18 -17 -17 -17 -17 -17 -17 -16 -16 -16 -16 -16 -16 -16 -16 -16 -15 -16 -16 -16
-21 -21 -20 -20 -20 -20 -19 -19 -19 -19 -19 -18 -18 -18 -17 -17 -17 -16 -16 -16 -16 -16 -16 -16 -17 -17 -16
Height
5651 5654 5655 5656 5658 5661 5664 5668 5672 5674 5675 5677 5678 5679 5679 5680 5680 5680 5679 5678 5677 5676 5677 5678 5679 5681 5683
5636 5638 5641 5643 5645 5648 5650 5653 5657 5660 5661 5663 5665 5666 5667 5667 5667 5666 5664 5662 5660 5658 5657 5660 5662 5665 5667
5619 5621 5624 5626 5631 5634 5636 5640 5644 5647 5648 5651 5653 5654 5654 5655 5653 5651 5649 5647 5645 5641 5638 5639 5643 5648 5652
5603 5607 5610 5611 5615 5618 5623 5626 5630 5632 5635 5639 5641 5641 5642 5641 5639 5637 5635 5633 5631 5628 5624 5622 5625 5631 5637
5589 5593 5596 5598 5601 5604 5609 5611 5615 5619 5623 5625 5627 5629 5630 5628 5627 5625 5623 5621 5619 5617 5615 5612 5613 5617 5621
5576 5580 5583 5586 5588 5592 5596 5599 5604 5606 5610 5613 5614 5616 5617 5616 5615 5614 5612 5611 5609 5607 5606 5605 5605 5606 5609
5562 5566 5570 5572 5576 5578 5581 5586 5590 5593 5596 5600 5602 5604 5604 5604 5603 5602 5601 5600 5599 5597 5597 5596 5596 5597 5598
5546 5552 5555 5559 5562 5565 5567 5571 5576 5581 5582 5586 5589 5591 5591 5592 5592 5590 5590 5589 5588 5587 5586 5586 5586 5586 5587
5529 5536 5539 5544 5548 5551 5554 5557 5562 5567 5569 5571 5576 5578 5578 5580 5580 5579 5578 5577 5576 5576 5576 5575 5576 5576 5576
5512 5519 5523 5528 5532 5537 5540 5544 5548 5553 5556 5558 5562 5565 5566 5568 5569 5568 5567 5567 5566 5566 5566 5566 5565 5565 5566
5495 5501 5506 5511 5516 5521 5525 5529 5533 5537 5541 5543 5547 5551 5553 5556 5556 5556 5557 5556 5556 5556 5556 5556 5556 5556 5557
5476 5482 5488 5493 5498 5504 5509 5513 5517 5521 5525 5530 5533 5536 5538 5541 5544 5545 5544 5546 5546 5546 5547 5547 5547 5547 5547
5455 5461 5467 5475 5481 5486 5491 5496 5500 5505 5510 5514 5519 5522 5525 5527 5529 5532 5533 5534 5535 5535 5536 5537 5538 5539 5540
5436 5442 5448 5455 5461 5467 5473 5478 5484 5489 5494 5498 5502 5507 5511 5513 5516 5518 5521 5522 5523 5524 5525 5526 5528 5530 5531
5419 5424 5430 5436 5443 5449 5454 5460 5466 5471 5477 5481 5486 5492 5495 5499 5503 5506 5508 5509 5511 5513 5514 5515 5517 5520 5522
5402 5408 5413 5419 5424 5430 5436 5442 5448 5453 5459 5465 5470 5476 5480 5485 5489 5492 5495 5497 5499 5501 5503 5505 5507 5510 5512
5385 5391 5397 5402 5408 5413 5419 5425 5431 5436 5442 5448 5454 5460 5465 5471 5475 5479 5482 5485 5487 5489 5492 5494 5497 5499 5502
Wind_Speed
61 60 58 60 60 60 60 58 56 54 54 53 52 50 48 49 50 52 56 59 60 61 60 57 57 56 54
62 59 55 54 55 56 57 57 56 54 54 52 49 47 47 48 52 55 52 56 59 61 64 62 60 56 56
50 53 56 61 64 60 57 55 53 53 53 49 47 47 48 49 48 49 50 47 49 52 56 64 64 59 55
44 44 44 47 51 55 55 54 52 51 49 46 45 45 45 45 45 43 44 45 42 42 44 47 57 62 59
46 43 45 41 45 47 47 49 50 49 47 47 46 43 42 42 42 42 43 42 39 36 35 35 39 47 52
50 48 45 44 41 48 50 50 49 49 48 47 47 44 42 41 41 39 41 39 36 34 33 33 32 35 45
54 52 50 49 46 45 50 51 51 51 51 50 48 45 43 42 42 41 40 40 40 39 37 36 35 37 40
59 56 55 52 50 49 49 52 53 51 53 52 51 48 45 43 42 42 41 40 38 39 38 36 35 37 41
60 57 58 55 52 50 51 50 52 51 52 51 50 49 47 44 42 41 40 37 38 39 37 36 38 39 37
57 55 55 56 56 54 52 53 52 52 53 53 49 47 47 45 43 40 39 37 37 36 34 36 35 34 34
62 59 56 55 56 56 57 55 54 54 52 52 49 47 47 45 43 41 40 38 38 35 34 35 34 34 34
66 64 62 59 57 57 58 58 57 55 53 51 50 50 49 47 45 41 41 40 38 37 36 36 34 35 34
66 67 66 63 61 58 57 58 59 58 57 56 53 51 50 48 47 43 40 40 40 40 36 34 34 34 31
62 65 66 65 64 63 61 60 59 59 58 58 56 52 50 49 47 45 40 41 41 39 35 33 33 32 32
61 61 62 63 64 64 63 62 61 60 58 56 56 53 52 50 48 44 42 40 39 39 35 34 34 33 30
59 59 60 60 61 61 61 60 60 59 57 55 55 53 53 50 47 45 44 43 41 39 38 34 34 35 33
56 57 57 57 58 58 58 57 56 56 55 55 53 53 53 49 45 44 42 41 38 36 35 34 33 32 31
Wind_Direction
252 253 256 257 258 259 260 260 261 262 263 263 263 263 264 267 269 272 274 273 272 269 266 264 263 264 265
252 254 254 254 255 256 258 259 259 260 261 260 259 261 265 270 275 275 275 276 274 270 265 262 259 259 259
253 253 253 253 252 252 254 255 257 258 257 256 258 262 268 273 276 277 279 278 277 272 271 261 256 255 257
254 253 252 255 252 248 249 252 251 249 250 252 257 264 271 275 278 281 281 281 279 278 279 270 256 254 255
252 253 253 260 250 246 244 247 246 246 248 251 256 263 270 274 276 279 280 280 278 278 280 281 264 256 254
251 251 255 256 256 247 247 247 248 249 249 252 258 261 268 276 276 278 277 277 278 282 280 276 272 266 258
251 254 255 255 253 254 248 246 246 248 251 252 256 259 267 274 277 275 277 276 274 278 282 274 268 266 264
252 253 254 253 253 252 251 245 246 248 251 253 255 259 264 269 275 275 274 277 275 277 275 271 269 271 270
254 254 254 252 251 250 249 249 247 248 250 252 255 257 262 267 272 273 274 275 277 276 274 273 274 274 268
253 252 252 252 251 250 250 248 249 249 252 255 256 258 259 265 268 272 270 273 274 273 273 275 276 270 261
253 253 252 251 250 251 250 250 250 251 252 256 258 258 260 263 264 267 266 269 271 270 275 275 270 268 258
248 249 251 251 251 250 250 251 251 253 255 255 256 258 260 261 261 263 264 264 266 266 271 274 265 263 261
243 244 246 247 248 249 250 250 250 251 254 256 256 256 257 258 260 261 262 260 260 263 267 267 260 259 260
244 243 243 244 245 246 248 249 249 251 251 252 253 253 254 255 256 258 260 258 257 257 263 260 256 255 259
243 244 243 243 244 244 245 246 247 248 248 250 250 249 250 250 251 253 256 253 252 256 255 255 251 250 254
240 242 243 242 243 243 243 244 245 245 245 245 245 245 245 247 247 248 251 251 249 250 249 248 245 246 251
237 239 241 242 242 242 242 242 242 242 242 241 240 240 241 242 243 244 245 244 243 242 240 239 238 241 246